Wind_Speed
18 25 31 31 31 28 26 24 22 21 21 21 21 21 19 16 14 12 10 9 8 9 8 7 6 6 5 4 4 4 4 4 4 5 4 5 6 6 6 7 11 5 8
19 26 30 30 30 29 27 25 23 22 21 22 22 21 19 17 15 13 12 10 8 7 7 6 5 5 5 5 5 4 3 3 3 4 4 4 3 4 4 5 9 5 7
22 28 30 29 29 29 27 26 24 22 21 21 22 21 19 17 16 14 12 11 10 8 7 6 5 5 5 4 4 4 4 3 3 4 6 4 3 2 3 5 6 7 6
23 27 32 30 29 29 27 26 24 23 22 22 22 21 20 18 15 14 12 8 7 6 5 5 5 5 5 5 4 4 4 3 2 4 5 4 2 2 8 6 6 6 6
22 25 30 30 29 28 28 26 25 25 23 23 23 21 20 18 15 13 11 9 7 6 6 5 4 4 3 3 3 3 3 4 3 6 5 6 3 7 7 8 5 5 8
21 23 28 29 28 28 28 27 27 26 25 24 23 21 20 18 16 14 12 10 9 7 7 6 6 5 4 3 2 2 2 3 7 7 6 4 2 5 6 7 6 4 5
21 23 28 29 28 28 27 27 27 26 25 24 23 22 19 18 17 14 13 11 9 8 8 7 6 5 5 5 4 4 3 2 5 6 7 5 4 6 6 7 7 6 6
22 23 29 30 29 28 28 28 27 26 25 25 23 21 20 18 17 15 13 12 10 10 8 7 6 6 6 5 5 5 4 3 4 6 6 5 3 5 6 6 7 7 6
24 28 29 32 30 28 28 27 28 27 26 25 24 22 21 19 17 16 15 13 12 11 10 9 7 6 5 4 3 2 3 3 6 6 6 5 4 5 7 8 6 5 6
26 31 34 33 32 30 30 29 28 27 27 26 25 24 21 18 17 16 15 15 14 13 11 9 8 6 5 3 3 3 3 4 8 8 6 6 2 6 7 8 9 9 10
27 32 35 34 33 33 31 31 30 30 29 28 27 25 20 20 19 17 18 15 15 13 11 9 8 7 6 5 4 4 5 8 10 9 8 9 6 1 4 6 8 10 12
27 33 37 37 34 35 33 32 32 32 31 30 29 26 23 22 21 17 20 17 15 13 11 10 9 8 6 6 6 5 7 9 11 12 10 10 7 6 4 4 2 4 8
27 32 38 40 39 36 36 33 33 31 32 33 30 27 25 24 24 23 21 20 18 16 15 14 12 10 9 8 8 7 7 10 12 11 16 12 8 7 7 6 5 4 3
27 31 35 41 43 42 38 39 35 38 37 37 32 30 27 26 25 22 20 20 19 17 16 15 14 12 11 10 9 8 9 12 11 11 13 5 4 5 5 5 5 5 5
29 32 36 39 43 42 38 36 39 42 39 37 34 33 29 27 27 25 22 20 19 19 18 16 15 14 13 12 11 10 10 11 11 9 8 5 3 2 2 2 2 3 5
28 32 36 40 42 42 44 41 44 42 39 37 37 35 33 31 30 27 25 23 21 19 19 18 17 16 14 13 12 12 11 11 11 9 7 6 4 3 2 1 3 4 6
27 27 33 39 44 44 48 48 45 41 41 41 39 38 36 34 32 29 26 25 23 23 22 21 19 17 16 15 14 13 12 11 10 10 8 5 3 2 1 2 2 1 2
25 27 29 36 42 43 50 50 47 44 43 42 41 40 39 38 36 32 30 27 26 24 23 22 20 19 18 16 16 16 14 13 11 10 8 7 5 1 1 2 2 3 2
25 27 29 35 40 41 47 50 49 48 46 44 44 43 41 41 39 35 32 30 28 26 26 24 22 20 19 19 17 16 15 14 12 10 8 7 5 3 1 1 2 3 4
24 26 28 33 41 41 42 50 52 50 48 48 48 46 46 44 41 37 34 33 29 28 27 26 25 22 20 19 17 16 14 13 11 9 7 6 5 4 3 2 2 4 5
22 25 28 31 42 42 45 48 55 57 55 53 51 49 50 45 43 39 36 35 31 29 28 28 26 24 23 22 19 15 12 12 11 9 7 6 5 5 3 1 0 2 6
19 22 27 30 37 45 45 47 51 56 57 56 54 53 51 48 44 42 41 38 35 33 32 31 29 28 25 25 14 13 11 8 9 10 7 7 6 5 3 0 2 3 4
21 23 26 29 36 42 43 44 48 49 53 57 57 55 51 49 46 45 44 38 37 36 34 34 33 30 24 28 23 10 9 8 15 8 9 8 6 4 4 1 1 3 4
23 22 24 27 32 40 40 47 46 54 57 60 61 57 55 53 50 46 43 40 39 38 36 35 33 31 26 27 29 25 16 12 9 11 10 9 8 7 4 2 1 1 3
24 23 24 24 28 41 44 45 46 48 56 58 60 58 56 54 51 47 45 44 41 38 36 33 31 29 29 22 24 26 19 13 12 11 14 13 10 8 5 3 2 1 2
23 27 22 25 28 41 46 46 49 50 53 56 58 58 62 59 54 50 48 45 44 40 38 36 33 30 26 26 25 23 21 18 16 10 13 17 12 9 8 4 2 1 2
Wind_Direction
190 185 180 179 177 176 175 175 175 179 183 182 183 184 183 182 184 188 184 178 173 173 169 167 169 173 172 164 158 151 138 130 115 108 118 118 111 110 110 106 91 96 98
183 188 185 182 180 180 180 179 180 182 186 187 186 187 188 188 187 186 183 182 182 179 184 181 182 179 172 169 171 163 152 141 126 111 112 98 95 88 110 121 117 120 101
180 188 188 186 185 184 185 184 185 187 188 189 187 188 191 191 187 186 184 183 187 193 194 199 203 201 204 198 188 180 171 161 133 115 103 96 28 91 148 136 133 127 122
179 189 190 188 190 188 189 189 191 192 192 194 192 191 193 195 190 188 192 200 193 195 199 210 217 221 220 214 216 213 207 195 164 120 86 96 3 98 155 144 138 125 110
181 186 192 191 193 194 193 194 197 197 197 198 197 195 195 196 199 201 205 212 214 213 211 213 208 217 225 223 219 218 203 196 178 100 108 133 176 131 155 155 152 146 138
182 184 195 195 198 199 198 199 201 201 201 201 201 200 199 201 204 204 209 215 217 213 204 192 186 190 200 201 212 212 194 160 117 114 98 162 170 166 187 191 199 197 186
183 185 196 198 202 203 203 203 204 205 203 204 204 204 206 207 208 210 214 220 219 211 198 188 185 190 203 207 215 227 225 190 116 109 97 83 165 183 202 215 224 226 225
187 187 198 200 205 206 206 206 206 207 207 206 208 212 213 213 213 215 220 220 214 207 201 203 207 214 218 215 208 204 206 189 109 106 97 87 162 208 211 214 218 225 232
195 196 196 201 205 208 210 209 210 207 208 209 212 214 217 217 216 219 219 215 209 205 205 209 213 218 217 208 196 178 174 173 112 109 103 81 179 215 221 223 219 219 228
209 205 203 204 205 207 209 211 213 210 210 213 216 216 217 216 219 219 216 211 207 207 214 212 201 195 189 183 162 144 129 127 104 98 99 107 138 224 232 230 234 233 234
214 213 209 206 208 208 209 211 213 213 213 216 219 218 216 214 214 213 214 212 208 214 218 213 198 184 181 172 157 137 126 112 98 96 104 111 132 36 273 250 244 242 245
221 218 214 213 208 213 213 213 213 215 217 217 218 218 211 213 209 197 215 212 214 216 215 208 196 185 179 170 159 147 129 118 105 105 120 128 98 81 55 31 350 254 249
236 226 221 216 214 215 213 212 213 213 214 217 218 216 208 210 213 214 216 211 214 211 211 201 196 189 180 167 160 155 142 116 112 125 143 138 111 81 59 54 47 26 20
242 234 229 223 220 219 216 216 213 216 219 221 216 216 212 211 212 205 208 206 210 205 205 201 201 195 185 176 170 163 148 126 130 131 167 161 126 88 65 49 22 14 28
243 238 236 230 226 223 218 218 219 222 226 225 221 219 214 208 211 210 210 213 213 214 205 203 198 194 188 179 171 168 163 152 141 144 159 167 177 150 102 99 29 13 359
245 249 241 238 233 224 222 221 224 229 226 221 225 225 217 214 215 214 216 215 214 212 207 203 201 195 189 180 174 169 169 168 168 163 166 173 193 222 263 337 7 36 38
250 242 249 243 237 225 226 226 230 233 226 226 223 226 222 218 218 216 217 217 216 212 209 206 200 196 189 182 178 174 173 174 175 173 173 170 209 244 300 325 19 46 22
255 247 239 249 242 234 232 232 234 233 233 228 224 224 225 221 219 216 217 218 217 214 209 205 200 195 189 182 176 175 176 177 180 181 182 173 160 103 346 316 315 309 339
253 247 240 246 248 243 236 235 235 233 231 229 228 229 226 222 218 217 217 218 218 213 209 204 198 195 188 182 175 172 172 174 179 184 183 178 177 174 224 270 319 333 337
258 247 240 238 248 248 239 235 235 234 232 232 230 229 228 222 220 217 216 219 216 214 210 206 201 194 190 182 171 167 168 170 173 174 178 173 178 180 171 146 27 330 333
268 255 245 235 251 245 241 234 234 230 229 229 230 230 228 222 221 218 219 219 215 213 212 209 203 196 186 179 166 160 163 173 172 174 171 159 165 163 194 176 77 359 340
276 265 252 241 243 250 249 245 238 236 230 229 227 226 227 223 221 220 219 219 217 213 211 208 204 197 195 189 175 162 163 174 183 184 175 164 163 148 147 268 316 333 344
298 275 258 245 235 250 248 245 239 236 234 227 225 227 227 224 222 220 220 219 217 216 214 210 205 200 198 194 183 178 172 187 168 178 175 170 173 179 169 113 331 359 360
304 293 273 259 248 248 245 239 243 241 235 233 229 224 222 218 217 219 220 220 218 216 213 211 208 205 215 207 198 199 183 183 171 162 182 177 191 180 195 154 4 345 15
315 305 283 265 248 246 251 242 242 239 241 238 234 227 221 221 218 216 218 217 218 215 211 207 208 210 219 215 206 207 202 191 169 167 170 181 180 185 187 170 141 39 16
320 315 302 271 255 246 248 245 245 242 237 231 233 229 224 217 214 214 216 215 216 214 210 212 211 205 208 224 214 215 214 202 198 178 159 175 178 193 195 171 117 88 43
Height
1505 1506 1509 1512 1516 1518 1521 1525 1528 1531 1533 1534 1536 1538 1539 1541 1542 1543 1544 1544 1545 1546 1546 1546 1546 1546 1546 1546 1546 1546 1546 1547 1548 1547 1548 1548 1548 1548 1548 1549 1548 1550 1548
1505 1504 1508 1512 1516 1519 1521 1524 1528 1530 1533 1535 1536 1538 1540 1541 1542 1543 1543 1544 1544 1545 1546 1546 1547 1547 1547 1547 1547 1546 1547 1548 1548 1548 1549 1550 1550 1549 1549 1549 1550 1550 1550
1504 1503 1508 1513 1516 1518 1521 1523 1527 1530 1532 1534 1536 1538 1540 1541 1541 1542 1543 1544 1544 1545 1546 1547 1547 1547 1548 1548 1548 1548 1548 1548 1548 1549 1552 1555 1553 1551 1550 1550 1550 1550 1551
1502 1502 1506 1510 1514 1517 1521 1523 1526 1529 1532 1534 1535 1537 1538 1541 1540 1541 1542 1543 1543 1544 1545 1546 1547 1548 1548 1548 1549 1548 1548 1548 1549 1551 1554 1555 1554 1550 1550 1550 1550 1551 1552
1502 1504 1505 1510 1513 1516 1519 1521 1525 1527 1530 1532 1534 1535 1537 1539 1540 1541 1541 1543 1542 1542 1543 1545 1546 1547 1548 1549 1548 1549 1549 1549 1550 1552 1554 1553 1551 1550 1550 1551 1551 1551 1551
1502 1506 1505 1510 1513 1515 1518 1519 1522 1526 1529 1532 1534 1535 1536 1537 1539 1540 1541 1542 1542 1542 1542 1543 1545 1546 1547 1548 1548 1549 1549 1550 1550 1553 1552 1549 1549 1550 1551 1551 1551 1550 1551
1503 1506 1506 1509 1512 1514 1517 1519 1522 1525 1527 1530 1533 1535 1536 1537 1538 1539 1540 1541 1542 1542 1542 1542 1543 1544 1545 1546 1547 1547 1548 1550 1552 1551 1552 1549 1548 1549 1549 1550 1551 1551 1551
1501 1504 1505 1508 1511 1514 1516 1518 1521 1524 1527 1529 1531 1534 1535 1536 1537 1538 1540 1541 1541 1542 1542 1542 1542 1543 1544 1545 1545 1545 1547 1548 1551 1552 1553 1549 1548 1548 1548 1549 1550 1550 1550
1498 1499 1503 1506 1508 1512 1514 1517 1520 1522 1526 1529 1530 1532 1535 1537 1538 1538 1539 1541 1541 1542 1541 1541 1542 1543 1544 1544 1545 1545 1545 1547 1549 1551 1552 1550 1547 1547 1547 1547 1548 1549 1549
1496 1497 1498 1503 1506 1509 1512 1515 1518 1520 1523 1527 1529 1530 1533 1536 1538 1539 1539 1540 1541 1541 1542 1541 1540 1541 1542 1544 1544 1545 1545 1546 1548 1550 1551 1547 1546 1545 1546 1546 1547 1547 1547
1494 1496 1497 1500 1503 1506 1509 1512 1515 1517 1519 1523 1525 1527 1530 1532 1535 1537 1539 1539 1539 1540 1541 1541 1541 1541 1542 1543 1544 1545 1545 1546 1548 1551 1549 1547 1546 1544 1544 1545 1545 1545 1545
1489 1491 1494 1497 1499 1502 1506 1510 1512 1514 1517 1519 1521 1524 1526 1529 1531 1534 1534 1537 1538 1539 1540 1541 1541 1541 1541 1541 1542 1543 1544 1545 1547 1549 1549 1548 1546 1545 1543 1543 1543 1543 1543
1485 1485 1486 1489 1493 1495 1499 1504 1508 1511 1512 1514 1518 1521 1523 1525 1527 1528 1530 1532 1534 1536 1537 1538 1539 1539 1539 1540 1541 1542 1543 1546 1548 1545 1545 1546 1547 1545 1544 1543 1542 1542 1541
1478 1480 1482 1484 1487 1489 1492 1495 1500 1502 1505 1509 1513 1516 1519 1522 1523 1526 1527 1529 1531 1533 1534 1535 1537 1537 1538 1538 1539 1541 1542 1545 1545 1543 1543 1544 1545 1545 1544 1543 1542 1541 1541
1474 1474 1475 1478 1482 1484 1487 1490 1493 1496 1500 1505 1508 1511 1514 1517 1519 1522 1524 1527 1528 1530 1531 1533 1534 1536 1537 1536 1537 1538 1541 1542 1543 1542 1542 1543 1544 1544 1544 1544 1543 1542 1541
1474 1470 1472 1472 1476 1479 1480 1484 1485 1488 1494 1499 1503 1505 1509 1511 1513 1516 1519 1522 1525 1527 1528 1529 1531 1532 1534 1535 1535 1536 1538 1540 1540 1541 1541 1542 1543 1543 1543 1543 1542 1542 1541
1470 1471 1465 1466 1468 1472 1475 1478 1480 1484 1487 1490 1494 1498 1503 1506 1508 1511 1514 1518 1520 1522 1525 1526 1528 1529 1531 1533 1532 1535 1536 1538 1539 1540 1540 1541 1540 1541 1541 1541 1541 1541 1540
1466 1466 1465 1460 1462 1467 1470 1470 1473 1476 1481 1484 1488 1490 1494 1498 1501 1505 1508 1512 1516 1518 1520 1523 1525 1526 1528 1531 1531 1532 1534 1536 1538 1539 1539 1539 1540 1539 1540 1540 1540 1539 1539
1457 1458 1460 1457 1455 1459 1463 1464 1467 1469 1472 1477 1481 1484 1488 1490 1494 1499 1502 1506 1510 1513 1515 1518 1521 1524 1525 1526 1528 1529 1532 1533 1536 1537 1538 1537 1538 1539 1539 1539 1538 1538 1537
1451 1451 1451 1451 1447 1449 1453 1457 1459 1464 1467 1468 1471 1475 1479 1483 1488 1492 1495 1499 1504 1507 1510 1513 1515 1519 1521 1523 1525 1526 1529 1531 1534 1536 1536 1537 1537 1537 1538 1538 1537 1536 1535
1445 1445 1445 1445 1441 1444 1445 1446 1448 1448 1454 1459 1463 1467 1470 1476 1481 1487 1490 1492 1498 1502 1505 1509 1512 1515 1516 1518 1521 1524 1526 1528 1531 1534 1535 1536 1536 1536 1536 1537 1535 1535 1533
1438 1439 1438 1437 1437 1434 1439 1442 1446 1447 1449 1450 1452 1456 1461 1467 1473 1478 1481 1485 1490 1494 1497 1502 1506 1509 1511 1513 1518 1523 1527 1530 1529 1531 1534 1535 1535 1535 1534 1535 1534 1533 1532
1435 1433 1431 1428 1425 1423 1428 1434 1440 1440 1441 1444 1444 1447 1452 1459 1464 1468 1473 1479 1483 1487 1490 1495 1498 1502 1506 1508 1511 1518 1521 1522 1526 1528 1530 1533 1533 1532 1531 1533 1532 1531 1530
1431 1428 1426 1426 1426 1415 1413 1414 1422 1428 1428 1432 1437 1439 1443 1448 1453 1460 1466 1471 1476 1480 1483 1489 1492 1499 1500 1506 1505 1509 1510 1512 1519 1526 1529 1529 1528 1528 1528 1530 1530 1530 1528
1428 1423 1420 1417 1415 1412 1409 1404 1407 1411 1419 1424 1426 1431 1434 1440 1447 1452 1457 1462 1467 1473 1477 1484 1488 1493 1498 1505 1503 1505 1507 1509 1513 1517 1520 1524 1528 1525 1527 1527 1527 1528 1527
1423 1420 1413 1410 1408 1402 1398 1398 1399 1399 1404 1407 1413 1420 1423 1427 1436 1442 1448 1454 1459 1465 1469 1475 1481 1487 1492 1499 1500 1502 1502 1504 1507 1513 1514 1520 1524 1521 1523 1525 1526 1526 1525